QPF
0.01 0.01 0.01 0.01 0.01 0.02 0.03 0.02 0.01 0.01 0.01 0.01 0.01 0.03 0.04 0.09 0.13 0.15 0.17 0.18 0.16 0.14 0.15 0.16 0.18 0.18 0.14 0.13 0.10 0.07 0.06 0.06 0.05 0.06 0.04 0.04 0.04 0.06 0.07 0.08 0.07 0.06 0.05
0.01 0.01 0.01 0.01 0.01 0.02 0.02 0.01 0.00 0.00 0.00 0.01 0.01 0.02 0.02 0.04 0.07 0.10 0.12 0.12 0.14 0.15 0.18 0.20 0.21 0.19 0.17 0.16 0.11 0.07 0.06 0.06 0.06 0.05 0.05 0.04 0.04 0.04 0.04 0.05 0.05 0.06 0.05
0.01 0.01 0.01 0.01 0.02 0.02 0.02 0.01 0.01 0.01 0.01 0.01 0.01 0.01 0.02 0.02 0.04 0.05 0.07 0.09 0.12 0.16 0.18 0.20 0.21 0.19 0.19 0.15 0.10 0.08 0.06 0.06 0.05 0.04 0.03 0.03 0.03 0.03 0.03 0.03 0.03 0.03 0.03
0.01 0.01 0.01 0.01 0.03 0.03 0.02 0.02 0.02 0.01 0.01 0.01 0.01 0.01 0.02 0.03 0.03 0.03 0.05 0.07 0.09 0.13 0.18 0.20 0.19 0.17 0.16 0.15 0.13 0.10 0.06 0.05 0.05 0.05 0.04 0.04 0.05 0.05 0.03 0.02 0.02 0.03 0.03
0.01 0.01 0.01 0.02 0.03 0.02 0.02 0.02 0.02 0.01 0.01 0.02 0.02 0.02 0.02 0.03 0.03 0.03 0.04 0.05 0.07 0.09 0.12 0.17 0.18 0.16 0.17 0.16 0.13 0.10 0.07 0.05 0.04 0.04 0.03 0.03 0.03 0.03 0.03 0.02 0.02 0.03 0.02
0.02 0.02 0.02 0.02 0.02 0.02 0.03 0.03 0.02 0.02 0.01 0.02 0.02 0.02 0.02 0.02 0.02 0.03 0.03 0.04 0.07 0.08 0.08 0.09 0.12 0.11 0.11 0.14 0.14 0.12 0.09 0.07 0.06 0.04 0.03 0.04 0.04 0.04 0.04 0.05 0.05 0.04 0.03
0.02 0.02 0.02 0.02 0.02 0.02 0.03 0.03 0.02 0.02 0.02 0.02 0.02 0.03 0.02 0.02 0.02 0.03 0.04 0.06 0.06 0.05 0.05 0.06 0.08 0.09 0.08 0.09 0.07 0.06 0.06 0.06 0.06 0.05 0.05 0.05 0.06 0.05 0.03 0.03 0.04 0.03 0.03
0.02 0.02 0.02 0.03 0.02 0.02 0.03 0.03 0.03 0.02 0.03 0.02 0.02 0.02 0.02 0.03 0.03 0.03 0.04 0.06 0.07 0.06 0.06 0.06 0.06 0.08 0.08 0.07 0.05 0.05 0.06 0.06 0.07 0.07 0.05 0.05 0.06 0.06 0.04 0.03 0.04 0.04 0.03
0.01 0.01 0.02 0.02 0.02 0.02 0.03 0.04 0.04 0.04 0.04 0.03 0.02 0.02 0.02 0.02 0.03 0.03 0.03 0.03 0.05 0.05 0.05 0.06 0.06 0.09 0.10 0.08 0.05 0.04 0.04 0.06 0.09 0.10 0.07 0.05 0.06 0.07 0.06 0.05 0.05 0.05 0.04
0.00 0.00 0.01 0.03 0.02 0.03 0.03 0.04 0.05 0.05 0.04 0.04 0.05 0.04 0.03 0.02 0.02 0.03 0.03 0.03 0.03 0.03 0.04 0.05 0.05 0.06 0.09 0.09 0.07 0.04 0.04 0.04 0.05 0.06 0.07 0.08 0.10 0.11 0.12 0.11 0.10 0.08 0.07
0.00 0.00 0.01 0.02 0.04 0.03 0.03 0.04 0.05 0.05 0.04 0.04 0.06 0.05 0.03 0.03 0.03 0.03 0.04 0.05 0.04 0.04 0.04 0.05 0.05 0.04 0.06 0.07 0.07 0.05 0.03 0.03 0.03 0.04 0.05 0.06 0.08 0.10 0.14 0.14 0.13 0.08 0.05
0.00 0.00 0.01 0.02 0.04 0.04 0.05 0.06 0.05 0.05 0.05 0.04 0.05 0.06 0.06 0.06 0.05 0.04 0.04 0.04 0.04 0.05 0.04 0.04 0.04 0.04 0.05 0.06 0.06 0.04 0.02 0.02 0.02 0.01 0.01 0.02 0.02 0.03 0.05 0.05 0.04 0.04 0.03
0.01 0.01 0.01 0.02 0.03 0.03 0.05 0.08 0.09 0.07 0.08 0.07 0.08 0.09 0.09 0.08 0.07 0.05 0.04 0.04 0.04 0.04 0.05 0.03 0.03 0.03 0.03 0.03 0.04 0.04 0.03 0.02 0.02 0.01 0.01 0.01 0.01 0.02 0.02 0.03 0.03 0.02 0.03
0.02 0.01 0.01 0.01 0.02 0.03 0.03 0.06 0.09 0.09 0.09 0.10 0.11 0.11 0.09 0.06 0.05 0.04 0.04 0.03 0.03 0.03 0.05 0.05 0.04 0.02 0.02 0.03 0.04 0.04 0.02 0.02 0.02 0.02 0.01 0.02 0.02 0.02 0.03 0.04 0.04 0.03 0.03
0.03 0.03 0.01 0.01 0.01 0.02 0.03 0.03 0.05 0.10 0.11 0.11 0.10 0.08 0.05 0.05 0.04 0.03 0.02 0.03 0.03 0.04 0.05 0.06 0.05 0.04 0.04 0.04 0.04 0.03 0.02 0.02 0.02 0.02 0.01 0.01 0.02 0.02 0.03 0.04 0.04 0.04 0.03
0.03 0.02 0.01 0.01 0.01 0.02 0.02 0.02 0.02 0.04 0.05 0.05 0.06 0.06 0.04 0.04 0.04 0.03 0.03 0.03 0.03 0.04 0.05 0.05 0.06 0.04 0.03 0.03 0.03 0.03 0.03 0.03 0.03 0.02 0.02 0.02 0.02 0.02 0.02 0.02 0.02 0.02 0.02
0.03 0.03 0.02 0.02 0.02 0.02 0.02 0.01 0.02 0.01 0.01 0.01 0.01 0.02 0.03 0.03 0.03 0.03 0.03 0.03 0.04 0.05 0.06 0.05 0.04 0.03 0.04 0.03 0.03 0.03 0.03 0.03 0.03 0.03 0.02 0.01 0.02 0.02 0.02 0.03 0.03 0.02 0.02
0.05 0.04 0.04 0.03 0.02 0.02 0.01 0.01 0.01 0.01 0.01 0.01 0.01 0.01 0.01 0.02 0.02 0.02 0.02 0.02 0.03 0.04 0.04 0.04 0.04 0.04 0.04 0.04 0.05 0.04 0.03 0.02 0.02 0.02 0.01 0.01 0.01 0.02 0.02 0.02 0.03 0.03 0.02
0.05 0.04 0.04 0.03 0.02 0.01 0.01 0.01 0.01 0.01 0.01 0.01 0.01 0.01 0.01 0.01 0.01 0.01 0.01 0.02 0.03 0.04 0.04 0.04 0.04 0.04 0.03 0.05 0.05 0.03 0.03 0.02 0.02 0.02 0.01 0.01 0.01 0.01 0.01 0.02 0.02 0.03 0.03
0.03 0.04 0.04 0.03 0.02 0.02 0.02 0.02 0.02 0.01 0.01 0.02 0.02 0.02 0.01 0.01 0.01 0.01 0.01 0.02 0.02 0.02 0.02 0.03 0.04 0.03 0.02 0.03 0.04 0.04 0.04 0.03 0.04 0.04 0.02 0.02 0.01 0.01 0.01 0.02 0.04 0.03 0.03
0.04 0.04 0.04 0.04 0.04 0.03 0.02 0.02 0.01 0.01 0.01 0.01 0.02 0.02 0.02 0.02 0.02 0.02 0.01 0.01 0.01 0.01 0.02 0.03 0.03 0.02 0.02 0.02 0.03 0.04 0.05 0.04 0.03 0.03 0.03 0.02 0.01 0.01 0.01 0.02 0.02 0.03 0.03
0.04 0.06 0.05 0.04 0.05 0.03 0.02 0.02 0.02 0.01 0.01 0.01 0.01 0.02 0.02 0.03 0.03 0.02 0.02 0.01 0.01 0.01 0.01 0.02 0.02 0.03 0.03 0.02 0.04 0.06 0.05 0.04 0.04 0.04 0.03 0.03 0.02 0.02 0.02 0.01 0.01 0.02 0.02
0.05 0.05 0.05 0.04 0.03 0.03 0.03 0.02 0.02 0.02 0.01 0.01 0.01 0.01 0.02 0.03 0.03 0.03 0.02 0.02 0.01 0.01 0.01 0.01 0.02 0.02 0.03 0.05 0.08 0.11 0.09 0.06 0.05 0.05 0.05 0.04 0.03 0.02 0.02 0.01 0.01 0.01 0.01
0.06 0.04 0.04 0.03 0.02 0.02 0.03 0.04 0.04 0.03 0.02 0.01 0.01 0.01 0.01 0.01 0.02 0.03 0.02 0.02 0.02 0.01 0.01 0.02 0.02 0.02 0.04 0.06 0.10 0.12 0.11 0.08 0.06 0.06 0.05 0.05 0.04 0.04 0.03 0.02 0.02 0.01 0.01
0.04 0.03 0.05 0.04 0.03 0.02 0.03 0.04 0.05 0.05 0.03 0.02 0.02 0.01 0.01 0.01 0.02 0.02 0.02 0.02 0.02 0.02 0.02 0.03 0.03 0.04 0.05 0.07 0.08 0.09 0.08 0.06 0.04 0.04 0.03 0.03 0.03 0.03 0.04 0.03 0.03 0.02 0.01
0.02 0.02 0.05 0.04 0.03 0.03 0.03 0.03 0.04 0.04 0.04 0.03 0.03 0.03 0.03 0.03 0.02 0.03 0.04 0.03 0.02 0.03 0.03 0.03 0.03 0.03 0.03 0.04 0.05 0.06 0.08 0.07 0.04 0.03 0.03 0.03 0.04 0.03 0.03 0.03 0.02 0.02 0.02
MSLP
1009.35 1008.98 1008.64 1008.36 1008.13 1007.94 1007.79 1007.63 1007.44 1007.22 1006.96 1006.68 1006.43 1006.28 1006.25 1006.41 1006.75 1007.27 1007.93 1008.67 1009.42 1010.14 1010.78 1011.35 1011.84 1012.28 1012.72 1013.17 1013.66 1014.17 1014.72 1015.27 1015.80 1016.31 1016.79 1017.24 1017.67 1018.08 1018.48 1018.87 1019.25 1019.61 1019.94
1009.82 1009.40 1009.02 1008.68 1008.41 1008.20 1008.04 1007.91 1007.78 1007.64 1007.48 1007.31 1007.16 1007.07 1007.07 1007.20 1007.46 1007.85 1008.35 1008.90 1009.47 1010.03 1010.55 1011.04 1011.49 1011.93 1012.39 1012.87 1013.40 1013.96 1014.54 1015.12 1015.69 1016.23 1016.73 1017.21 1017.66 1018.09 1018.52 1018.93 1019.31 1019.67 1020.00
1010.32 1009.86 1009.44 1009.07 1008.76 1008.53 1008.36 1008.24 1008.16 1008.09 1008.03 1007.97 1007.93 1007.93 1007.97 1008.09 1008.28 1008.54 1008.86 1009.22 1009.59 1009.96 1010.32 1010.69 1011.07 1011.49 1011.96 1012.49 1013.07 1013.69 1014.33 1014.96 1015.56 1016.13 1016.65 1017.15 1017.61 1018.06 1018.49 1018.91 1019.32 1019.69 1020.03
1010.84 1010.37 1009.92 1009.52 1009.19 1008.92 1008.73 1008.61 1008.55 1008.53 1008.54 1008.58 1008.64 1008.72 1008.82 1008.94 1009.08 1009.24 1009.40 1009.56 1009.72 1009.89 1010.09 1010.32 1010.63 1011.01 1011.49 1012.06 1012.70 1013.39 1014.09 1014.77 1015.42 1016.02 1016.56 1017.06 1017.53 1017.98 1018.41 1018.84 1019.25 1019.64 1019.99
1011.40 1010.92 1010.47 1010.05 1009.69 1009.39 1009.16 1009.00 1008.93 1008.92 1008.97 1009.07 1009.20 1009.35 1009.51 1009.65 1009.76 1009.84 1009.87 1009.88 1009.86 1009.85 1009.88 1009.99 1010.21 1010.55 1011.03 1011.63 1012.32 1013.08 1013.84 1014.59 1015.29 1015.92 1016.48 1016.98 1017.43 1017.87 1018.29 1018.71 1019.13 1019.53 1019.91
1012.00 1011.53 1011.08 1010.65 1010.26 1009.92 1009.64 1009.43 1009.30 1009.25 1009.29 1009.41 1009.57 1009.77 1009.97 1010.14 1010.26 1010.29 1010.26 1010.15 1010.00 1009.86 1009.76 1009.75 1009.88 1010.18 1010.64 1011.26 1011.99 1012.80 1013.63 1014.43 1015.17 1015.83 1016.40 1016.90 1017.35 1017.76 1018.17 1018.58 1018.99 1019.40 1019.80
1012.65 1012.19 1011.75 1011.32 1010.91 1010.53 1010.18 1009.89 1009.67 1009.55 1009.53 1009.61 1009.77 1009.98 1010.21 1010.41 1010.54 1010.59 1010.53 1010.37 1010.16 1009.93 1009.74 1009.65 1009.71 1009.96 1010.40 1011.01 1011.76 1012.60 1013.46 1014.31 1015.08 1015.76 1016.35 1016.85 1017.29 1017.69 1018.07 1018.46 1018.86 1019.27 1019.68
1013.32 1012.88 1012.45 1012.03 1011.61 1011.18 1010.77 1010.39 1010.07 1009.84 1009.72 1009.72 1009.82 1010.01 1010.24 1010.46 1010.64 1010.71 1010.67 1010.53 1010.31 1010.06 1009.83 1009.70 1009.71 1009.91 1010.31 1010.90 1011.64 1012.47 1013.35 1014.21 1015.00 1015.70 1016.30 1016.81 1017.25 1017.64 1018.01 1018.38 1018.76 1019.16 1019.57
1013.97 1013.55 1013.15 1012.74 1012.31 1011.86 1011.39 1010.92 1010.49 1010.14 1009.90 1009.78 1009.80 1009.92 1010.13 1010.35 1010.56 1010.68 1010.71 1010.62 1010.45 1010.23 1010.01 1009.87 1009.86 1010.03 1010.38 1010.92 1011.61 1012.42 1013.27 1014.12 1014.91 1015.62 1016.24 1016.76 1017.21 1017.60 1017.96 1018.32 1018.69 1019.07 1019.46
1014.55 1014.15 1013.77 1013.39 1012.97 1012.51 1012.00 1011.46 1010.94 1010.47 1010.09 1009.85 1009.75 1009.78 1009.92 1010.13 1010.34 1010.52 1010.61 1010.61 1010.52 1010.38 1010.23 1010.12 1010.11 1010.25 1010.56 1011.04 1011.66 1012.40 1013.20 1014.01 1014.79 1015.49 1016.12 1016.66 1017.12 1017.53 1017.90 1018.26 1018.61 1018.97 1019.33
1015.00 1014.62 1014.27 1013.91 1013.52 1013.06 1012.54 1011.97 1011.38 1010.81 1010.32 1009.94 1009.71 1009.63 1009.68 1009.83 1010.03 1010.23 1010.39 1010.48 1010.50 1010.46 1010.40 1010.35 1010.38 1010.52 1010.79 1011.20 1011.75 1012.40 1013.12 1013.87 1014.60 1015.29 1015.92 1016.48 1016.97 1017.40 1017.79 1018.16 1018.50 1018.83 1019.15
1015.29 1014.93 1014.60 1014.27 1013.90 1013.48 1012.97 1012.40 1011.77 1011.14 1010.56 1010.07 1009.71 1009.50 1009.44 1009.51 1009.66 1009.86 1010.06 1010.23 1010.35 1010.43 1010.48 1010.53 1010.61 1010.76 1011.01 1011.37 1011.84 1012.40 1013.03 1013.69 1014.37 1015.03 1015.65 1016.22 1016.73 1017.19 1017.60 1017.97 1018.31 1018.62 1018.91
1015.42 1015.06 1014.74 1014.43 1014.10 1013.71 1013.25 1012.70 1012.08 1011.43 1010.79 1010.21 1009.74 1009.41 1009.23 1009.19 1009.27 1009.44 1009.65 1009.88 1010.09 1010.28 1010.44 1010.60 1010.76 1010.96 1011.21 1011.54 1011.94 1012.41 1012.94 1013.52 1014.13 1014.74 1015.33 1015.90 1016.42 1016.90 1017.33 1017.71 1018.04 1018.33 1018.58
1015.42 1015.04 1014.72 1014.41 1014.11 1013.76 1013.35 1012.85 1012.27 1011.64 1010.98 1010.36 1009.81 1009.37 1009.07 1008.92 1008.91 1009.02 1009.21 1009.46 1009.74 1010.03 1010.30 1010.57 1010.83 1011.09 1011.37 1011.69 1012.04 1012.44 1012.89 1013.38 1013.91 1014.46 1015.01 1015.55 1016.07 1016.55 1016.98 1017.36 1017.69 1017.96 1018.19
1015.35 1014.93 1014.57 1014.26 1013.97 1013.65 1013.29 1012.85 1012.34 1011.76 1011.12 1010.49 1009.90 1009.38 1008.99 1008.73 1008.61 1008.64 1008.79 1009.04 1009.36 1009.71 1010.08 1010.46 1010.82 1011.16 1011.49 1011.82 1012.16 1012.52 1012.90 1013.31 1013.76 1014.23 1014.73 1015.23 1015.72 1016.18 1016.61 1016.98 1017.29 1017.54 1017.75
1015.26 1014.79 1014.39 1014.04 1013.73 1013.43 1013.11 1012.73 1012.29 1011.77 1011.20 1010.59 1009.99 1009.44 1008.97 1008.62 1008.41 1008.36 1008.45 1008.67 1008.99 1009.38 1009.82 1010.28 1010.74 1011.16 1011.56 1011.93 1012.28 1012.62 1012.96 1013.31 1013.69 1014.10 1014.53 1014.97 1015.42 1015.84 1016.24 1016.59 1016.88 1017.12 1017.31
1015.21 1014.68 1014.21 1013.80 1013.46 1013.15 1012.85 1012.52 1012.14 1011.69 1011.18 1010.63 1010.06 1009.51 1009.01 1008.60 1008.32 1008.19 1008.20 1008.37 1008.67 1009.07 1009.54 1010.06 1010.58 1011.09 1011.56 1011.98 1012.36 1012.71 1013.03 1013.35 1013.68 1014.03 1014.40 1014.79 1015.18 1015.56 1015.92 1016.24 1016.51 1016.74 1016.92
1015.22 1014.61 1014.07 1013.60 1013.20 1012.85 1012.54 1012.23 1011.89 1011.51 1011.08 1010.60 1010.08 1009.56 1009.06 1008.63 1008.30 1008.10 1008.04 1008.15 1008.39 1008.77 1009.24 1009.78 1010.34 1010.90 1011.43 1011.91 1012.34 1012.72 1013.06 1013.37 1013.68 1013.99 1014.31 1014.65 1014.99 1015.33 1015.65 1015.94 1016.20 1016.42 1016.60
1015.24 1014.58 1013.97 1013.43 1012.96 1012.55 1012.20 1011.89 1011.57 1011.24 1010.87 1010.46 1010.01 1009.55 1009.08 1008.65 1008.30 1008.05 1007.93 1007.96 1008.14 1008.46 1008.89 1009.41 1009.99 1010.58 1011.15 1011.68 1012.16 1012.58 1012.96 1013.30 1013.61 1013.91 1014.21 1014.52 1014.83 1015.13 1015.42 1015.69 1015.94 1016.16 1016.37
1015.21 1014.52 1013.86 1013.25 1012.71 1012.24 1011.84 1011.49 1011.17 1010.86 1010.54 1010.20 1009.83 1009.43 1009.02 1008.62 1008.26 1007.99 1007.81 1007.77 1007.87 1008.11 1008.47 1008.95 1009.50 1010.08 1010.68 1011.25 1011.78 1012.26 1012.68 1013.06 1013.41 1013.73 1014.04 1014.34 1014.64 1014.93 1015.21 1015.47 1015.72 1015.96 1016.20
1015.08 1014.38 1013.68 1013.03 1012.42 1011.88 1011.42 1011.02 1010.68 1010.38 1010.10 1009.81 1009.51 1009.18 1008.84 1008.48 1008.15 1007.86 1007.64 1007.54 1007.55 1007.70 1007.98 1008.38 1008.88 1009.43 1010.03 1010.62 1011.19 1011.73 1012.22 1012.66 1013.06 1013.42 1013.76 1014.08 1014.39 1014.69 1014.98 1015.25 1015.52 1015.79 1016.05
1014.77 1014.08 1013.37 1012.69 1012.04 1011.44 1010.92 1010.48 1010.11 1009.81 1009.55 1009.32 1009.08 1008.82 1008.54 1008.24 1007.94 1007.65 1007.40 1007.24 1007.17 1007.23 1007.42 1007.74 1008.16 1008.68 1009.25 1009.86 1010.46 1011.04 1011.59 1012.10 1012.56 1012.98 1013.37 1013.73 1014.07 1014.39 1014.70 1015.00 1015.30 1015.60 1015.90
1014.25 1013.58 1012.89 1012.19 1011.52 1010.90 1010.34 1009.87 1009.49 1009.19 1008.95 1008.75 1008.57 1008.38 1008.16 1007.92 1007.64 1007.36 1007.10 1006.88 1006.75 1006.73 1006.83 1007.07 1007.43 1007.89 1008.44 1009.04 1009.67 1010.29 1010.90 1011.46 1011.98 1012.46 1012.90 1013.30 1013.68 1014.03 1014.37 1014.70 1015.03 1015.36 1015.71
1013.52 1012.88 1012.21 1011.53 1010.87 1010.24 1009.68 1009.20 1008.83 1008.54 1008.33 1008.18 1008.05 1007.91 1007.75 1007.55 1007.30 1007.03 1006.75 1006.50 1006.31 1006.23 1006.26 1006.43 1006.73 1007.16 1007.68 1008.28 1008.92 1009.57 1010.21 1010.82 1011.39 1011.91 1012.39 1012.83 1013.23 1013.61 1013.97 1014.33 1014.69 1015.05 1015.42
1012.64 1012.02 1011.37 1010.72 1010.08 1009.48 1008.95 1008.50 1008.16 1007.91 1007.75 1007.65 1007.57 1007.48 1007.36 1007.18 1006.95 1006.67 1006.38 1006.10 1005.88 1005.75 1005.73 1005.86 1006.13 1006.53 1007.04 1007.64 1008.29 1008.96 1009.62 1010.26 1010.85 1011.39 1011.89 1012.34 1012.76 1013.15 1013.53 1013.90 1014.27 1014.65 1015.04
1011.67 1011.05 1010.42 1009.79 1009.19 1008.64 1008.17 1007.79 1007.52 1007.34 1007.24 1007.19 1007.16 1007.10 1007.00 1006.84 1006.60 1006.31 1006.00 1005.70 1005.45 1005.29 1005.25 1005.36 1005.62 1006.02 1006.54 1007.14 1007.80 1008.48 1009.15 1009.79 1010.38 1010.92 1011.42 1011.87 1012.28 1012.67 1013.05 1013.42 1013.79 1014.18 1014.57
Thickness
5742 5742 5741 5740 5740 5740 5739 5739 5738 5738 5737 5737 5736 5736 5736 5736 5736 5737 5737 5737 5737 5737 5736 5735 5733 5732 5731 5729 5728 5727 5726 5725 5724 5724 5723 5722 5721 5720 5718 5717 5716 5715 5714
5741 5740 5739 5739 5738 5737 5737 5737 5736 5735 5735 5734 5734 5734 5734 5734 5734 5733 5734 5735 5736 5736 5735 5734 5732 5731 5729 5728 5727 5726 5725 5725 5724 5723 5722 5721 5720 5719 5717 5716 5715 5714 5713
5740 5739 5738 5737 5736 5736 5735 5735 5734 5733 5732 5732 5731 5731 5731 5731 5731 5731 5732 5733 5734 5734 5733 5733 5732 5730 5728 5727 5727 5726 5725 5724 5723 5722 5721 5720 5719 5718 5716 5715 5714 5713 5712
5739 5738 5737 5736 5735 5734 5733 5732 5731 5730 5729 5728 5728 5728 5728 5728 5728 5729 5729 5729 5730 5731 5731 5730 5730 5729 5727 5726 5726 5725 5724 5723 5722 5721 5720 5719 5718 5716 5715 5714 5713 5712 5711
5737 5736 5736 5734 5733 5733 5732 5731 5729 5728 5726 5725 5725 5725 5725 5725 5725 5726 5726 5726 5727 5727 5728 5728 5728 5728 5726 5725 5724 5723 5722 5721 5721 5720 5719 5718 5717 5715 5714 5713 5712 5711 5709
5736 5735 5734 5733 5732 5731 5729 5729 5727 5726 5725 5724 5724 5723 5723 5723 5723 5723 5724 5724 5724 5724 5724 5725 5725 5724 5724 5723 5722 5721 5720 5720 5720 5719 5718 5717 5716 5714 5713 5712 5710 5709 5708
5734 5733 5732 5731 5730 5728 5727 5727 5726 5724 5722 5722 5720 5719 5720 5722 5722 5722 5722 5721 5721 5722 5722 5722 5722 5721 5721 5720 5720 5719 5719 5719 5718 5718 5717 5715 5714 5712 5711 5710 5709 5707 5705
5732 5731 5730 5728 5728 5727 5726 5725 5724 5722 5721 5721 5718 5715 5713 5715 5718 5719 5719 5719 5719 5719 5719 5719 5719 5719 5718 5718 5717 5717 5717 5717 5717 5716 5715 5713 5712 5711 5710 5708 5707 5705 5703
5730 5729 5728 5727 5726 5726 5724 5724 5723 5721 5719 5719 5719 5715 5710 5708 5711 5714 5715 5716 5716 5716 5716 5716 5716 5716 5715 5715 5715 5715 5716 5715 5715 5713 5712 5711 5709 5708 5707 5706 5705 5703 5701
5728 5728 5727 5726 5725 5724 5723 5723 5722 5721 5719 5717 5717 5716 5715 5714 5710 5707 5711 5712 5713 5713 5713 5713 5713 5713 5713 5713 5712 5713 5712 5712 5711 5710 5709 5708 5706 5705 5704 5703 5702 5700 5699
5726 5726 5725 5724 5723 5722 5721 5721 5720 5720 5719 5717 5716 5715 5713 5712 5711 5707 5705 5707 5708 5710 5710 5710 5710 5710 5710 5710 5709 5709 5709 5709 5708 5707 5706 5705 5703 5703 5701 5700 5699 5697 5696
5723 5724 5723 5722 5721 5721 5720 5719 5719 5718 5717 5717 5716 5715 5713 5711 5709 5707 5704 5703 5704 5706 5707 5708 5708 5707 5708 5707 5707 5706 5706 5706 5705 5704 5703 5702 5701 5699 5698 5697 5695 5694 5693
5720 5721 5721 5720 5720 5719 5719 5718 5717 5716 5715 5715 5714 5713 5713 5712 5711 5708 5705 5702 5701 5702 5703 5705 5705 5705 5705 5704 5704 5703 5703 5703 5702 5701 5700 5699 5698 5696 5695 5693 5692 5691 5690
5718 5719 5719 5718 5718 5718 5717 5716 5714 5713 5713 5712 5712 5711 5711 5710 5709 5707 5705 5702 5699 5698 5698 5700 5702 5702 5701 5700 5700 5700 5699 5699 5698 5698 5697 5697 5695 5693 5692 5690 5689 5687 5686
5717 5717 5717 5716 5716 5716 5715 5714 5712 5710 5709 5709 5709 5708 5708 5707 5706 5706 5704 5703 5699 5695 5694 5696 5697 5698 5697 5697 5696 5696 5695 5695 5694 5694 5693 5693 5691 5690 5688 5687 5685 5684 5682
5715 5714 5713 5713 5713 5712 5711 5710 5709 5707 5706 5706 5706 5705 5705 5704 5704 5703 5702 5701 5699 5696 5692 5693 5693 5694 5694 5694 5693 5692 5691 5691 5690 5690 5689 5688 5687 5686 5684 5683 5682 5680 5679
5712 5711 5710 5710 5709 5709 5708 5706 5705 5704 5703 5702 5701 5701 5700 5700 5699 5699 5698 5697 5695 5694 5691 5690 5690 5690 5690 5689 5688 5688 5687 5686 5685 5685 5684 5683 5682 5681 5680 5679 5678 5676 5675
5708 5707 5706 5705 5705 5705 5704 5703 5701 5700 5699 5698 5697 5696 5696 5696 5695 5694 5694 5693 5691 5690 5689 5686 5686 5685 5685 5684 5683 5683 5682 5681 5681 5680 5679 5679 5677 5676 5675 5674 5673 5671 5670
5704 5703 5702 5701 5700 5700 5699 5698 5697 5696 5695 5694 5693 5692 5692 5691 5690 5690 5689 5688 5688 5687 5685 5683 5681 5680 5679 5679 5678 5678 5677 5676 5676 5675 5674 5673 5672 5671 5670 5669 5667 5666 5665
5699 5698 5697 5696 5696 5696 5695 5694 5693 5691 5691 5690 5690 5689 5688 5688 5687 5685 5684 5684 5683 5681 5680 5679 5677 5676 5675 5674 5672 5671 5670 5669 5669 5669 5667 5667 5665 5665 5664 5663 5661 5660 5659
5694 5693 5692 5691 5691 5690 5690 5689 5688 5687 5686 5685 5685 5685 5684 5684 5683 5682 5681 5679 5678 5676 5674 5673 5671 5670 5669 5668 5667 5666 5665 5664 5663 5662 5661 5660 5659 5658 5657 5656 5655 5654 5653
5688 5687 5686 5685 5685 5685 5684 5684 5683 5682 5681 5680 5679 5679 5679 5679 5678 5677 5676 5675 5674 5672 5670 5668 5667 5665 5664 5664 5662 5661 5659 5659 5657 5656 5654 5653 5652 5651 5650 5649 5649 5648 5646
5682 5680 5680 5680 5678 5678 5678 5678 5678 5677 5676 5674 5674 5674 5674 5673 5672 5671 5670 5669 5668 5668 5667 5665 5663 5662 5661 5660 5658 5656 5654 5653 5652 5651 5648 5647 5646 5645 5644 5643 5642 5641 5640
5675 5674 5674 5673 5673 5672 5672 5672 5672 5670 5669 5668 5668 5668 5667 5666 5666 5665 5664 5663 5662 5661 5661 5660 5659 5659 5659 5657 5655 5653 5650 5647 5645 5644 5642 5641 5640 5639 5638 5637 5636 5635 5633
5669 5669 5668 5667 5666 5666 5666 5666 5665 5664 5662 5662 5661 5661 5661 5660 5660 5659 5657 5656 5655 5655 5655 5654 5654 5653 5653 5652 5649 5646 5643 5641 5639 5638 5636 5635 5634 5632 5632 5631 5630 5628 5626
5663 5662 5661 5661 5660 5660 5660 5660 5659 5657 5655 5655 5655 5655 5655 5655 5654 5652 5651 5649 5648 5649 5648 5648 5647 5646 5645 5644 5642 5640 5638 5635 5633 5631 5630 5627 5627 5625 5625 5624 5622 5620 5618